TimeEDT,TemperatureF,Dew PointF,Humidity,Sea Level PressureIn,VisibilityMPH,Wind Direction,Wind SpeedMPH,Gust SpeedMPH,PrecipitationIn,Events,Conditions,WindDirDegrees,DateUTC
12:53 AM,72.0,66.9,84,29.89,6.0,SSE,8.1,-,N/A,,Haze,160,2012-09-07 04:53:00
1:53 AM,71.6,66.2,83,29.89,7.0,SSE,3.5,-,N/A,,Mostly Cloudy,150,2012-09-07 05:53:00
2:53 AM,70.0,66.0,87,29.88,7.0,SSE,6.9,-,N/A,,Clear,160,2012-09-07 06:53:00
3:53 AM,70.0,64.9,84,29.87,8.0,SSE,4.6,-,N/A,,Scattered Clouds,150,2012-09-07 07:53:00
4:53 AM,70.0,64.9,84,29.88,9.0,Calm,Calm,-,N/A,,Partly Cloudy,0,2012-09-07 08:53:00
5:53 AM,70.0,64.0,81,29.88,10.0,South,8.1,-,N/A,,Clear,170,2012-09-07 09:53:00
6:53 AM,68.0,63.0,84,29.88,9.0,Calm,Calm,-,N/A,,Clear,0,2012-09-07 10:53:00
7:53 AM,70.0,64.0,81,29.89,7.0,SSE,4.6,-,N/A,,Clear,160,2012-09-07 11:53:00
8:53 AM,72.0,64.0,76,29.88,10.0,South,5.8,-,N/A,,Clear,180,2012-09-07 12:53:00
9:53 AM,75.9,64.9,69,29.89,10.0,SSW,9.2,-,N/A,,Clear,200,2012-09-07 13:53:00
10:53 AM,79.0,66.0,64,29.89,9.0,West,5.8,-,N/A,,Clear,260,2012-09-07 14:53:00
11:53 AM,79.0,66.9,66,29.89,10.0,West,5.8,-,N/A,,Clear,280,2012-09-07 15:53:00
12:53 PM,80.1,66.0,62,29.87,10.0,NW,5.8,-,N/A,,Clear,310,2012-09-07 16:53:00
1:53 PM,79.0,68.0,69,29.86,10.0,NNW,6.9,-,N/A,,Clear,330,2012-09-07 17:53:00
2:53 PM,78.1,64.9,64,29.84,10.0,Calm,Calm,-,N/A,,Clear,0,2012-09-07 18:53:00
3:53 PM,77.0,66.0,69,29.82,10.0,Calm,Calm,-,N/A,,Clear,0,2012-09-07 19:53:00
4:42 PM,75.2,66.2,73,29.84,10.0,Calm,Calm,-,0.00,Rain-Thunderstorm,Light Thunderstorms and Rain,0,2012-09-07 20:42:00
4:53 PM,73.0,64.9,76,29.82,2.5,Calm,Calm,-,0.03,Rain-Thunderstorm,Heavy Thunderstorms and Rain,0,2012-09-07 20:53:00
5:05 PM,71.6,64.4,78,29.80,8.0,ESE,6.9,-,0.01,Rain-Thunderstorm,Light Thunderstorms and Rain,120,2012-09-07 21:05:00
5:32 PM,73.4,64.4,73,29.80,10.0,Calm,Calm,-,0.02,Rain,Light Rain,0,2012-09-07 21:32:00
5:53 PM,75.9,66.9,74,29.79,10.0,SW,4.6,-,0.02,,Scattered Clouds,220,2012-09-07 21:53:00
6:53 PM,73.9,63.0,68,29.76,10.0,South,6.9,-,N/A,,Scattered Clouds,170,2012-09-07 22:53:00
7:53 PM,72.0,62.1,71,29.74,10.0,SSE,13.8,21.9,N/A,,Partly Cloudy,160,2012-09-07 23:53:00
8:53 PM,71.1,62.1,73,29.71,10.0,SSE,9.2,-,N/A,,Clear,160,2012-09-08 00:53:00
9:53 PM,71.1,62.1,73,29.70,10.0,SSE,12.7,19.6,N/A,,Clear,160,2012-09-08 01:53:00
10:53 PM,71.1,61.0,70,29.70,10.0,SSE,10.4,19.6,N/A,,Partly Cloudy,160,2012-09-08 02:53:00
11:53 PM,71.1,61.0,70,29.66,10.0,SSE,13.8,20.7,N/A,,Partly Cloudy,160,2012-09-08 03:53:00